CW6871 Weather Reports


time (UTC)temp
C
wind
direction
speed
KPH
gust
KPH
rain 1hr
cm
rain 24hr
cm
rain mn
cm
humidity
%
barometer
mb
20260505083129 12 170 0.0 0.0 0.00 0.00 0.00 88 1012.2
20260505082111 12 184 0.0 0.0 0.00 0.00 0.00 87 1012.1
20260505081127 12 181 0.0 0.0 0.00 0.00 0.00 87 1012.1
20260505080125 12 177 0.0 0.0 0.00 0.00 0.00 86 1012.1
20260505075115 13 176 0.0 0.0 0.00 0.00 0.00 86 1012.1
20260505073138 13 177 0.0 0.0 0.00 0.00 0.00 84 1011.9
20260505072120 13 168 0.0 0.0 0.00 0.00 0.00 83 1011.7
20260505071117 13 181 0.0 0.0 0.00 0.00 0.00 83 1011.6
20260505070147 14 180 0.0 0.0 0.00 0.00 0.00 82 1011.5
20260505065109 14 182 0.0 0.0 0.00 0.00 0.00 81 1011.4
20260505064108 15 184 0.0 0.0 0.00 0.00 0.00 81 1011.2
20260505062139 15 179 0.0 0.0 0.00 0.00 0.00 79 1011.1
20260505061149 16 179 0.0 0.0 0.00 0.00 0.00 77 1010.9
20260505060136 16 179 0.0 0.0 0.00 0.00 0.00 76 1010.8
20260505055133 16 172 0.0 0.0 0.00 0.00 0.00 75 1010.8
20260505054127 16 172 0.0 0.0 0.00 0.00 0.00 74 1010.7
20260505053142 16 188 0.0 0.0 0.00 0.00 0.00 74 1010.7
20260505052134 16 146 0.0 0.0 0.00 0.00 0.00 74 1010.4
20260505041140 18 48 0.0 0.0 0.00 0.00 0.00 58 1009.9
20260505040139 19 48 0.0 0.0 0.00 0.00 0.00 57 1009.7
20260505035123 20 48 0.0 0.0 0.00 0.00 0.00 56 1009.6
20260505034123 20 47 0.0 0.0 0.00 0.00 0.00 54 1009.5
20260505033147 21 48 0.0 0.0 0.00 0.00 0.00 54 1009.2
20260505031120 21 47 0.0 0.0 0.00 0.00 0.00 51 1009.2
20260505030135 22 52 0.0 0.0 0.00 0.00 0.00 51 1008.9
20260505025119 22 60 0.0 0.0 0.00 0.00 0.00 52 1008.8
20260505024139 22 63 0.0 0.0 0.00 0.00 0.00 50 1008.7
20260505023117 23 72 0.0 0.0 0.00 0.00 0.00 49 1008.7
20260505021112 23 71 0.0 0.0 0.00 0.00 0.00 47 1008.7
20260505020113 24 87 0.0 0.0 0.00 0.00 0.00 46 1008.7
20260505015115 24 26 0.0 0.0 0.00 0.00 0.00 45 1008.7
20260505014146 25 28 0.0 0.0 0.00 0.00 0.00 43 1008.8
20260505011131 25 177 0.0 0.0 0.00 0.00 0.00 44 1008.7
20260505010143 25 177 0.0 0.0 0.00 0.00 0.00 44 1008.8
20260505005129 25 174 0.0 0.0 0.00 0.00 0.00 44 1008.8
20260505004137 25 175 0.0 0.0 0.00 0.00 0.00 43 1008.7
20260505002146 25 147 0.0 0.0 0.00 0.00 0.00 42 1008.8
20260505001145 25 130 0.0 0.0 0.00 0.00 0.00 44 1008.8
20260505000113 25 178 0.0 0.0 0.00 0.00 0.00 42 1008.9
20260504235111 25 165 0.0 0.0 0.00 0.00 0.00 42 1009.0
20260504234112 25 151 0.0 0.0 0.00 0.00 0.00 39 1009.0
20260504233112 25 162 0.0 0.0 0.00 0.00 0.00 40 1009.0
20260504232143 25 182 0.0 0.0 0.00 0.00 0.00 42 1009.1
20260504231143 25 163 0.0 0.0 0.00 0.00 0.00 41 1009.0
20260504230137 25 173 0.0 0.0 0.00 0.00 0.00 40 1009.1
20260504223131 25 170 0.0 0.0 0.00 0.00 0.00 42 1009.4
20260504222135 25 180 0.0 0.0 0.00 0.00 0.00 44 1009.3
20260504221117 25 135 0.0 0.0 0.00 0.00 0.00 40 1009.7
20260504220121 25 174 0.0 0.0 0.00 0.00 0.00 43 1009.7
20260504215116 25 139 0.0 0.0 0.00 0.00 0.00 40 1009.8
20260504214117 25 190 0.0 0.0 0.00 0.00 0.00 43 1009.9
20260504213153 25 179 0.0 0.0 0.00 0.00 0.00 38 1009.9
20260504212134 25 173 0.0 0.0 0.00 0.00 0.00 39 1009.9
20260504211121 25 113 0.0 0.0 0.00 0.00 0.00 42 1009.9
20260504210116 24 150 0.0 0.0 0.00 0.00 0.00 41 1009.9
20260504205148 24 170 0.0 0.0 0.00 0.00 0.00 39 1010.0
20260504204121 24 350 0.0 0.0 0.00 0.00 0.00 40 1010.1
20260504203137 24 152 0.0 0.0 0.00 0.00 0.00 40 1010.1
20260504202113 24 152 0.0 0.0 0.00 0.00 0.00 45 1010.1
20260504201121 24 175 0.0 0.0 0.00 0.00 0.00 39 1010.1
20260504195148 24 184 0.0 0.0 0.00 0.00 0.00 45 1010.1
20260504194136 24 177 0.0 0.0 0.00 0.00 0.00 44 1010.0
20260504193145 24 178 0.0 0.0 0.00 0.00 0.00 43 1010.0
20260504192151 24 182 0.0 0.0 0.00 0.00 0.00 44 1010.1
20260504185144 22 185 0.0 0.0 0.00 0.00 0.00 50 1010.5
20260504184144 22 181 0.0 0.0 0.00 0.00 0.00 52 1010.4
20260504183154 22 151 0.0 0.0 0.00 0.00 0.00 51 1010.5
20260504181110 21 172 0.0 0.0 0.00 0.00 0.00 53 1010.4
20260504180125 21 175 0.0 0.0 0.00 0.00 0.00 54 1010.6
20260504175140 21 166 0.0 0.0 0.00 0.00 0.00 55 1010.5
20260504174153 20 174 0.0 0.0 0.00 0.00 0.00 56 1010.5
20260504173135 20 161 0.0 0.0 0.00 0.00 0.00 58 1010.5
20260504171150 20 164 0.0 0.0 0.00 0.00 0.00 62 1010.5
20260504170131 19 178 0.0 0.0 0.00 0.00 0.00 61 1010.5
20260504160154 17 169 0.0 0.0 0.00 0.00 0.00 73 1010.4
20260504150135 13 132 0.0 0.0 0.00 0.00 0.00 84 1010.1
20260504141109 11 132 0.0 0.0 0.00 0.00 0.00 88 1009.9
20260504140137 11 96 0.0 0.0 0.00 0.00 0.00 87 1009.7
20260504130148 10 70 0.0 0.0 0.00 0.00 0.00 87 1009.2
20260504120150 11 47 0.0 0.0 0.00 0.00 0.00 84 1009.1
20260504110130 11 47 0.0 0.0 0.00 0.00 0.00 81 1009.2
20260504100142 12 47 0.0 0.0 0.00 0.00 0.00 78 1009.0
20260504090111 13 47 0.0 0.0 0.00 0.00 0.00 74 1008.8